Weather History for Chamberlain, SD

Change the Weather History Date:

Monday, August 18, 2014

  Actual Average Record
Temperature  
Mean Temperature 69 °F -  
Max Temperature 83 °F 83 °F 99 °F (1998)
Min Temperature 55 °F 57 °F 46 °F (2002)
Cooling Degree Days 4    
Growing Degree Days 19 (Base 50)    
Moisture  
Dew Point 58 °F    
Average Humidity 71    
Maximum Humidity 96    
Minimum Humidity 45    
Precipitation  
Precipitation 0.00 in - - ()
Sea Level Pressure  
Sea Level Pressure 29.86 in    
Wind  
Wind Speed 6 mph (WNW)    
Max Wind Speed 18 mph    
Max Gust Speed 25 mph    
Visibility 10 miles    
Events      
Averages and records for this station are not official NWS values.
T = Trace of Precipitation, MM = Missing Value Source: NWS Daily Summary

Daily Weather History Graph

Daily Weather History Graph

Search for Another Location

Airport:

Trip Planner

Search our weather history database for the weather conditions in past years. The results will help you decide how hot, cold, wet, or windy it might be!

Date:

Astronomy

Aug. 18, 2014 Rise Set
Actual Time 6:45 AM CDT 8:36 PM CDT
Civil Twilight 6:14 AM CDT 9:07 PM CDT
Nautical Twilight 5:36 AM CDT 9:44 PM CDT
Astronomical Twilight 4:55 AM CDT 10:25 PM CDT
Moon 12:50 AM CDT (8/18) 3:44 PM CDT (8/18)
Length of Visible Light 14h 52m
Length of Day
13h 51m
Last Quarter, 38% of the Moon is Illuminated
Aug 18
Last Quarter
Aug 25
New
Sep 2
First Quarter
Sep 8
Full
Sep 15
Last Quarter

Hourly Weather History & Observations

Time (CDT) Temp. Heat Index Dew Point Humidity Pressure Visibility Wind Dir Wind Speed Gust Speed Precip Events Conditions
12:15 AM 60.4 °F - 57.9 °F 91% 29.89 in 10.0 mi Calm Calm - N/A   Clear
12:35 AM 58.3 °F - 56.3 °F 93% 29.90 in 10.0 mi SSW 5.8 mph - N/A   Clear
12:55 AM 58.6 °F - 56.5 °F 93% 29.91 in 10.0 mi Calm Calm - N/A   Clear
1:15 AM 56.8 °F - 55.4 °F 95% 29.91 in 10.0 mi SW 3.5 mph - N/A   Clear
1:35 AM 58.8 °F - 56.5 °F 92% 29.91 in 10.0 mi West 3.5 mph - N/A   Clear
1:55 AM 58.1 °F - 56.7 °F 95% 29.91 in 10.0 mi Calm Calm - N/A   Clear
2:15 AM 58.1 °F - 57.0 °F 96% 29.91 in 10.0 mi Calm Calm - N/A   Clear
2:35 AM 59.0 °F - 57.0 °F 93% 29.91 in 10.0 mi WNW 5.8 mph - N/A   Clear
2:55 AM 59.2 °F - 57.2 °F 93% 29.91 in 10.0 mi Calm Calm - N/A   Clear
3:15 AM 57.7 °F - 56.7 °F 96% 29.91 in 10.0 mi WNW 4.6 mph - N/A   Clear
3:35 AM 57.4 °F - 55.9 °F 95% 29.91 in 10.0 mi NW 6.9 mph - N/A   Clear
3:55 AM 57.4 °F - 55.9 °F 95% 29.90 in 10.0 mi NW 4.6 mph - N/A   Clear
4:15 AM 57.4 °F - 55.8 °F 94% 29.90 in 10.0 mi NW 5.8 mph - N/A   Clear
4:35 AM 57.2 °F - 55.6 °F 94% 29.89 in 10.0 mi WNW 5.8 mph - N/A   Clear
4:55 AM 56.7 °F - 55.4 °F 96% 29.89 in 10.0 mi WNW 3.5 mph - N/A   Clear
5:15 AM 56.1 °F - 55.0 °F 96% 29.89 in 10.0 mi West 4.6 mph - N/A   Clear
5:35 AM 55.9 °F - 54.5 °F 95% 29.89 in 10.0 mi WNW 4.6 mph - N/A   Clear
5:55 AM 56.1 °F - 54.9 °F 96% 29.89 in 10.0 mi West 5.8 mph - N/A   Clear
6:15 AM 56.3 °F - 54.7 °F 94% 29.88 in 10.0 mi West 4.6 mph - N/A   Clear
6:35 AM 56.7 °F - 54.9 °F 94% 29.88 in 10.0 mi West 5.8 mph - N/A   Clear
6:55 AM 56.8 °F - 54.9 °F 93% 29.88 in 10.0 mi West 4.6 mph - N/A   Clear
7:15 AM 56.5 °F - 55.0 °F 95% 29.88 in 10.0 mi WNW 3.5 mph - N/A   Clear
7:35 AM 57.7 °F - 55.9 °F 94% 29.88 in 10.0 mi West 3.5 mph - N/A   Clear
7:55 AM 58.8 °F - 56.7 °F 93% 29.88 in 10.0 mi West 3.5 mph - N/A   Clear
8:15 AM 60.8 °F - 57.7 °F 90% 29.88 in 10.0 mi Calm Calm - N/A   Clear
8:35 AM 63.1 °F - 58.8 °F 86% 29.88 in 10.0 mi WNW 5.8 mph - N/A   Clear
8:55 AM 64.4 °F - 58.5 °F 81% 29.88 in 10.0 mi West 4.6 mph - N/A   Clear
9:15 AM 65.7 °F - 58.6 °F 78% 29.88 in 10.0 mi West 6.9 mph - N/A   Clear
9:35 AM 67.3 °F - 59.2 °F 75% 29.88 in 10.0 mi West 5.8 mph - N/A   Clear
9:55 AM 68.9 °F - 59.4 °F 72% 29.87 in 10.0 mi WNW 4.6 mph - N/A   Clear
10:15 AM 70.7 °F - 60.6 °F 70% 29.87 in 10.0 mi WNW 6.9 mph - N/A   Clear
10:35 AM 73.2 °F - 61.9 °F 68% 29.87 in 10.0 mi WNW 8.1 mph - N/A   Clear
10:55 AM 75.2 °F - 62.4 °F 64% 29.87 in 10.0 mi WNW 10.4 mph - N/A   Clear
11:15 AM 77.2 °F - 62.8 °F 61% 29.87 in 10.0 mi WNW 9.2 mph - N/A   Clear
11:35 AM 78.3 °F - 61.7 °F 57% 29.86 in 10.0 mi NNW 8.1 mph 16.1 mph N/A   Clear
11:55 AM 79.7 °F - 62.2 °F 55% 29.86 in 10.0 mi NNW 10.4 mph - N/A   Clear
12:15 PM 80.1 °F 81.0 °F 60.6 °F 51% 29.86 in 10.0 mi NNW 9.2 mph - N/A   Clear
12:35 PM 81.0 °F 81.6 °F 60.1 °F 49% 29.86 in 10.0 mi NW 15.0 mph 18.4 mph N/A   Clear
12:55 PM 81.7 °F 82.3 °F 60.8 °F 49% 29.85 in 10.0 mi NW 11.5 mph - N/A   Clear
1:15 PM 82.2 °F 83.2 °F 62.2 °F 51% 29.85 in 10.0 mi NNW 13.8 mph - N/A   Clear
1:35 PM 82.6 °F 83.4 °F 62.1 °F 50% 29.84 in 10.0 mi WNW 16.1 mph 20.7 mph N/A   Clear
1:55 PM 82.4 °F 83.0 °F 61.7 °F 49% 29.84 in 10.0 mi NW 15.0 mph - N/A   Clear
2:15 PM 83.1 °F 83.9 °F 62.1 °F 49% 29.83 in 10.0 mi NW 11.5 mph 16.1 mph N/A   Clear
2:35 PM 83.3 °F 83.5 °F 60.4 °F 46% 29.83 in 10.0 mi WNW 11.5 mph 20.7 mph N/A   Clear
2:55 PM 83.1 °F 83.3 °F 60.4 °F 46% 29.83 in 10.0 mi NW 18.4 mph 25.3 mph N/A   Clear
3:15 PM 82.9 °F 83.2 °F 60.4 °F 46% 29.83 in 10.0 mi WNW 15.0 mph 21.9 mph N/A   Clear
3:35 PM 82.8 °F 83.1 °F 60.6 °F 47% 29.83 in 10.0 mi WNW 13.8 mph 19.6 mph N/A   Scattered Clouds
3:55 PM 81.5 °F 81.8 °F 59.5 °F 47% 29.83 in 10.0 mi NW 16.1 mph 23.0 mph N/A   Scattered Clouds
4:15 PM 82.2 °F 82.4 °F 59.4 °F 46% 29.83 in 10.0 mi NW 16.1 mph 23.0 mph N/A   Scattered Clouds
4:35 PM 81.1 °F 81.6 °F 59.5 °F 48% 29.83 in 10.0 mi NW 17.3 mph 23.0 mph N/A   Scattered Clouds
4:55 PM 81.5 °F 81.6 °F 58.5 °F 45% 29.83 in 10.0 mi WNW 13.8 mph 24.2 mph N/A   Scattered Clouds
5:15 PM 81.3 °F 81.6 °F 58.8 °F 46% 29.83 in 10.0 mi NNW 16.1 mph 21.9 mph N/A   Scattered Clouds
5:35 PM 81.0 °F 81.2 °F 58.3 °F 46% 29.83 in 10.0 mi NW 16.1 mph 25.3 mph N/A   Clear
5:55 PM 81.0 °F 81.2 °F 58.5 °F 46% 29.82 in 10.0 mi NW 15.0 mph 23.0 mph N/A   Scattered Clouds
6:15 PM 80.8 °F 81.2 °F 58.6 °F 47% 29.82 in 10.0 mi NW 13.8 mph 19.6 mph N/A   Clear
6:35 PM 80.1 °F 80.7 °F 58.8 °F 48% 29.82 in 10.0 mi NW 15.0 mph 19.6 mph N/A   Clear
6:55 PM 79.9 °F - 59.0 °F 49% 29.82 in 10.0 mi NW 12.7 mph - N/A   Clear
7:15 PM 78.8 °F - 59.2 °F 51% 29.82 in 10.0 mi NW 15.0 mph 18.4 mph N/A   Clear
7:35 PM 77.7 °F - 59.0 °F 52% 29.82 in 10.0 mi NW 8.1 mph - N/A   Clear
7:55 PM 76.3 °F - 59.0 °F 55% 29.82 in 10.0 mi NW 10.4 mph - N/A   Clear
8:15 PM 75.4 °F - 58.5 °F 56% 29.81 in 10.0 mi NW 9.2 mph - N/A   Clear
8:35 PM 72.9 °F - 59.0 °F 62% 29.81 in 10.0 mi NW 6.9 mph - N/A   Clear
8:55 PM 71.2 °F - 59.2 °F 66% 29.81 in 10.0 mi NW 5.8 mph - N/A   Clear
9:15 PM 69.8 °F - 59.4 °F 69% 29.82 in 10.0 mi WNW 5.8 mph - N/A   Clear
9:35 PM 69.6 °F - 59.2 °F 69% 29.83 in 10.0 mi NW 5.8 mph - N/A   Clear
9:55 PM 69.1 °F - 59.0 °F 70% 29.84 in 10.0 mi NW 5.8 mph - N/A   Clear
10:15 PM 67.5 °F - 59.0 °F 74% 29.85 in 10.0 mi NW 4.6 mph - N/A   Clear
10:35 PM 67.1 °F - 59.2 °F 76% 29.84 in 10.0 mi NW 4.6 mph - N/A   Clear
11:15 PM 66.6 °F - 59.2 °F 77% 29.84 in 10.0 mi NW 4.6 mph - N/A   Clear
11:55 PM 66.9 °F - 58.8 °F 75% 29.84 in 10.0 mi North 4.6 mph - N/A   Clear